Location: Amherst
(42.5000°N, 72.5000°W)
Time: 03:58:31
(UTC-04:00)

ISS - Pass Details

Date: 19 May 2018
Orbit: 402 x 407 km, 51.6° (Epoch: 27 May)

Event Time Altitude Azimuth Distance (km) Brightness Sun altitude
Rises 04:17:04 0° 305° (NW) 2,319 -0.1 -11.1°
Reaches altitude 10° 04:19:11 10° 310° (NW) 1,457 -1.1 -10.8°
Maximum altitude 04:22:24 55° 30° (NNE) 489 -3.0 -10.3°
Drops below altitude 10° 04:25:36 10° 109° (ESE) 1,452 -0.6 -9.9°
Sets 04:27:42 0° 114° (ESE) 2,308 0.4 -9.6°
